Home > Weather > Hangzhou > Past weeks

Flag for China Past Weather in Hangzhou, Zhejiang, China — Yesterday and Last 2 Weeks

Now
91 °F

Passing clouds.


Feels Like: 103 °F
Forecast: 79 / 99 °F
Wind: 6 mph from East

Location: Hangzhou Airport

Current Time: Jul 29, 2016 at 8:09:32 PM

Latest Report: Jul 29, 2016 at 7:30 PM


Visibility: N/A

Pressure: 29.71 "Hg

Humidity: 59%

Dew Point: 75 °F

Location of HangzhouLocation

Past Weather in Hangzhou — Graph

°F

Hangzhou Temperature Yesterday

Maximum temperature yesterday: 102 °F (at 1:30 PM)
Minimum temperature yesterday: 84 °F (at 12:30 AM)
Average temperature yesterday: 92 °F

High & Low Weather Summary for the Past Weeks

 TemperatureHumidityPressure
High104 °F (Jul 24, 3:00 PM)100% (Jul 15, 4:30 AM)29.77 "Hg (Jul 15, 4:30 AM)
Low75 °F (Jul 16, 8:30 AM)37% (Jul 23, 2:00 PM)29.47 "Hg (Jul 15, 2:30 PM)
Average90 °F69%29.68 "Hg
* Reported Jul 14 7:00 PM — Jul 29 7:00 PM, Hangzhou, Weather by CustomWeather, © 2016

Note: Actual official high and low records may vary slightly from our data, if they occured in-between our weather recording intervals... More about our weather records

Advertising

Hangzhou Weather History for the Previous 24 Hours

Scroll right to see more
 ConditionsComfort  
Time TempWeatherWind HumidityBarometerVisibility
7:00 PM
Fri, Jul 29
91 °FPassing clouds.3 mph63%29.68 "HgN/A
6:30 PM93 °FScattered clouds.8 mph59%29.68 "HgN/A
6:00 PM93 °FScattered clouds.8 mph63%29.68 "HgN/A
5:30 PM93 °FScattered clouds.10 mph63%29.68 "HgN/A
5:00 PM95 °FScattered clouds.13 mph60%29.68 "HgN/A
4:30 PM97 °FScattered clouds.17 mph56%29.68 "HgN/A
4:00 PM100 °FScattered clouds.8 mph45%29.71 "HgN/A
3:30 PM100 °FScattered clouds.6 mph45%29.68 "HgN/A
3:00 PM102 °FScattered clouds.3 mph51%29.68 "HgN/A
2:30 PM102 °FScattered clouds.3 mph42%29.68 "HgN/A
2:00 PM102 °FScattered clouds.3 mph45%29.68 "HgN/A
1:30 PM102 °FScattered clouds.3 mph48%29.71 "HgN/A
1:00 PM100 °FScattered clouds.3 mph47%29.71 "HgN/A
12:30 PM100 °FScattered clouds.3 mph47%29.71 "HgN/A
12:00 PM99 °FPassing clouds.3 mph50%29.74 "HgN/A
11:30 AM99 °FSunny.3 mph50%29.74 "Hg10 mi
11:00 AM99 °FPassing clouds.6 mph50%29.74 "HgN/A
10:30 AM99 °FSunny.3 mph50%29.74 "Hg10 mi
10:00 AM97 °FPassing clouds.6 mph56%29.74 "HgN/A
9:30 AM95 °FSunny.8 mph56%29.74 "Hg10 mi
9:00 AM95 °FPassing clouds.8 mph56%29.74 "HgN/A
8:30 AM93 °FPassing clouds.8 mph63%29.74 "HgN/A
8:00 AM91 °FSunny.6 mph63%29.74 "Hg10 mi
7:30 AM90 °FSunny.6 mph67%29.74 "Hg10 mi
7:00 AM90 °FSunny.3 mph71%29.71 "Hg10 mi
6:30 AM88 °FSunny.3 mph75%29.71 "Hg10 mi
6:00 AM84 °FSunny.6 mph84%29.71 "Hg10 mi
5:30 AM86 °FPassing clouds.3 mph75%29.71 "HgN/A
5:00 AM84 °FClear.3 mph84%29.71 "Hg10 mi
4:30 AM86 °FClear.3 mph75%29.71 "Hg10 mi
4:00 AM86 °FClear.3 mph75%29.71 "Hg10 mi
3:30 AM86 °FClear.3 mph75%29.68 "Hg10 mi
3:00 AM88 °FClear.3 mph70%29.68 "Hg10 mi
2:30 AM88 °FPassing clouds.3 mph70%29.68 "HgN/A
2:00 AM88 °FClear.No wind70%29.68 "Hg10 mi
1:30 AM88 °FClear.1 mph70%29.71 "Hg10 mi
1:00 AM88 °FClear.3 mph70%29.71 "Hg10 mi
12:30 AM88 °FClear.1 mph79%29.71 "Hg10 mi
12:00 AM88 °FClear.No wind79%29.71 "Hg10 mi
11:30 PM
Thu, Jul 28
90 °FClear.No wind71%29.71 "Hg10 mi
11:00 PM90 °FClear.1 mph67%29.71 "Hg10 mi
10:30 PM91 °FClear.1 mph63%29.71 "Hg10 mi
10:00 PM91 °FClear.3 mph63%29.71 "Hg10 mi
9:30 PM91 °FClear.1 mph63%29.71 "Hg10 mi
9:00 PM93 °FPassing clouds.3 mph59%29.68 "HgN/A
8:30 PM93 °FClear.3 mph59%29.68 "Hg5 mi
8:00 PM91 °FClear.3 mph67%29.68 "Hg5 mi
Weather by CustomWeather, © 2016

See weather overviewHow to use our weather pages